This is the latest recevied weather packets stored in our database for station/object YU7IBS-1. If no packets are shown the sender has not sent any weather packets the latest 10 day(s).
| Time | Temp. | Humidity | Pressure | Rain* | Wind** | Luminosity | Snow |
|---|---|---|---|---|---|---|---|
| 1787692458 | 23.89° C | 68% | 996.7 hPa | 0 mm | - | - | - |
| 1787691856 | 24.44° C | 62% | 996.5 hPa | 0 mm | - | - | - |
| 1787691256 | 25° C | 59% | 996.5 hPa | 0 mm | - | - | - |
| 1787690658 | 25° C | 59% | 996.5 hPa | 0 mm | - | - | - |
| 1787690056 | 25.56° C | 57% | 996.2 hPa | 0 mm | - | - | - |
| 1787689459 | 25.56° C | 56% | 995.9 hPa | 0 mm | - | - | - |
| 1787688856 | 25.56° C | 55% | 995.9 hPa | 0 mm | - | - | - |
| 1787688256 | 25.56° C | 53% | 996 hPa | 0 mm | - | - | - |
| 1787687658 | 25.56° C | 54% | 996 hPa | 0 mm | - | - | - |
| 1787687057 | 25.56° C | 54% | 996 hPa | 0 mm | - | - | - |
| 1787686456 | 26.11° C | 53% | 995.5 hPa | 0 mm | - | - | - |
| 1787685857 | 26.11° C | 55% | 995.4 hPa | 0 mm | - | - | - |
| 1787685258 | 26.11° C | 55% | 995.1 hPa | 0 mm | - | - | - |
| 1787684658 | 25.56° C | 54% | 995 hPa | 0 mm | - | - | - |
| 1787684058 | 25.56° C | 56% | 995 hPa | 0 mm | - | - | - |
| 1787683458 | 26.11° C | 56% | 995.1 hPa | 0 mm | - | - | - |
| 1787682857 | 26.11° C | 54% | 995.4 hPa | 0 mm | - | - | - |
| 1787682257 | 26.67° C | 54% | 995.7 hPa | 0 mm | - | - | - |
| 1787681658 | 26.67° C | 51% | 995.7 hPa | 0 mm | - | - | - |
| 1787681058 | 26.67° C | 49% | 995.6 hPa | 0 mm | - | - | - |
| 1787680458 | 27.22° C | 50% | 995.7 hPa | 0 mm | - | - | - |
| 1787679858 | 27.22° C | 48% | 995.7 hPa | 0 mm | - | - | - |
| 1787679256 | 27.22° C | 46% | 995.3 hPa | 0 mm | - | - | - |
| 1787678658 | 27.78° C | 47% | 995.1 hPa | 0 mm | - | - | - |
| 1787678057 | 27.78° C | 48% | 995 hPa | 0 mm | - | - | - |
* Rain latest hour (hover to see other rain measurements)
** Current wind speed in m/s (hover to see current wind gust speed)